Frank Wiley Field
KMLS : now visible

Airfield :











YOU CAN JOIN US ON...

 
LOGIN :

Register | Disclaimer

   EN    FR    IT 

 









Legend :    VFR   Marginal VFR   IFR   Intensive IFR   Very Intensive IFR
Visi :
Ceiling :
>= 8 km
>= 3000ft
5 to 8 km
1000 to 3000 ft
1500m to 5 km
500 to 1000 ft
800 to 1500m
200 to 500 ft
< 800m
< 200 ft
Symbols :   Thunderstorms  Fog  Heavy snow  Heavy precipitations  Wind > 20 kt






- Airport Elevation : 2630 ft
- IATA code : MLS


KMLS - Frank Wiley Field

CURRENT METAR :
  • 052353Z AUTO 15005KT 10SM CLR 03/M02 A2962 RMK AO2 SLP050 T00331022 10061 20028 58019

EXPIRED METARs :
  • 052253Z AUTO 14005KT 10SM FEW100 05/M02 A2964 RMK AO2 SLP057 T00501022
  • 052153Z AUTO 15010KT 10SM OVC110 06/M03 A2966 RMK AO2 SLP061 T00561028

TAF KMLS
Valid from the 06 at 00:00 until the 07 at 00:00 UTC


052337Z 0600/0624 15009KT P6SM SCT060 BKN100
FM060400 27011KT P6SM VCSH SCT040 BKN060
FM061500 31016G26KT P6SM SCT070 SCT150
KZLC FIR / North America



MET'MAP, your aeronautical weather chart ! - Copyright ORBIFLY December 2007 - Disclaimer

ORBIFLY MET'MAP TEAM :

Programming & Development : Alexandra Zaïnal
Original concept : Baudouin d'Aumeries
Technical & hardware support : Manuel Goepfert
Assistance : Marc-Olivier Méhu




SOURCES & CREDITS :

   NOAA       Earth
Advisory